| time (UTC) | temp F | wind direction | speed knots | gust knots | rain 1hr in | rain 24hr in | rain mn in | humidity % | barometer mb |
| 20260506033503 | 68 | 197 | 5.2 | 10.4 | 0.00 | 0.00 | 0.00 | 60 | 1008.6 |
| 20260506033003 | 68 | 174 | 2.6 | 10.4 | 0.00 | 0.00 | 0.00 | 60 | 1008.6 |
| 20260506032503 | 68 | 195 | 4.3 | 7.8 | 0.00 | 0.00 | 0.00 | 59 | 1008.6 |
| 20260506032003 | 68 | 195 | 4.3 | 8.7 | 0.00 | 0.00 | 0.00 | 58 | 1008.6 |
| 20260506031503 | 69 | 148 | 3.5 | 7.8 | 0.00 | 0.00 | 0.00 | 57 | 1008.5 |
| 20260506031003 | 69 | 189 | 5.2 | 8.7 | 0.00 | 0.00 | 0.00 | 56 | 1008.6 |
| 20260506030002 | 69 | 166 | 1.7 | 10.4 | 0.00 | 0.00 | 0.00 | 55 | 1008.5 |
| 20260506025503 | 69 | 190 | 3.5 | 7.0 | 0.00 | 0.00 | 0.00 | 54 | 1008.6 |
| 20260506025002 | 69 | 188 | 4.3 | 13.0 | 0.00 | 0.00 | 0.00 | 53 | 1008.5 |
| 20260506024507 | 70 | 162 | 3.5 | 7.0 | 0.00 | 0.00 | 0.00 | 53 | 1008.4 |
| 20260506024002 | 70 | 166 | 5.2 | 12.2 | 0.00 | 0.00 | 0.00 | 52 | 1008.5 |
| 20260506023503 | 70 | 186 | 2.6 | 6.1 | 0.00 | 0.00 | 0.00 | 51 | 1008.6 |
| 20260506023006 | 70 | 177 | 2.6 | 7.8 | 0.00 | 0.00 | 0.00 | 51 | 1008.6 |
| 20260506022003 | 71 | 155 | 2.6 | 10.4 | 0.00 | 0.00 | 0.00 | 50 | 1008.4 |
| 20260506020502 | 71 | 173 | 2.6 | 7.8 | 0.00 | 0.00 | 0.00 | 49 | 1008.5 |
| 20260506015503 | 72 | 191 | 2.6 | 10.4 | 0.00 | 0.00 | 0.00 | 48 | 1008.5 |
| 20260506015002 | 72 | 137 | 2.6 | 7.8 | 0.00 | 0.00 | 0.00 | 48 | 1008.5 |
| 20260506014503 | 72 | 202 | 3.5 | 7.8 | 0.00 | 0.00 | 0.00 | 48 | 1008.4 |
| 20260506013502 | 72 | 232 | 2.6 | 7.0 | 0.00 | 0.00 | 0.00 | 48 | 1008.5 |
| 20260506013003 | 72 | 213 | 1.7 | 4.3 | 0.00 | 0.00 | 0.00 | 48 | 1008.4 |
| 20260506012502 | 72 | 164 | 3.5 | 10.4 | 0.00 | 0.00 | 0.00 | 48 | 1008.3 |
| 20260506012003 | 72 | 180 | 4.3 | 8.7 | 0.00 | 0.00 | 0.00 | 47 | 1008.3 |
| 20260506011503 | 72 | 203 | 4.3 | 7.8 | 0.00 | 0.00 | 0.00 | 47 | 1008.2 |
| 20260506011002 | 73 | 114 | 2.6 | 6.1 | 0.00 | 0.00 | 0.00 | 46 | 1008.3 |
| 20260506010503 | 73 | 221 | 1.7 | 10.4 | 0.00 | 0.00 | 0.00 | 46 | 1008.1 |
| 20260506005503 | 73 | 245 | 3.5 | 7.8 | 0.00 | 0.00 | 0.00 | 44 | 1008.1 |
| 20260506004002 | 73 | 214 | 3.5 | 7.0 | 0.00 | 0.00 | 0.00 | 42 | 1008.0 |
| 20260506003505 | 74 | 163 | 1.7 | 4.3 | 0.00 | 0.00 | 0.00 | 42 | 1007.9 |
| 20260506003002 | 74 | 193 | 2.6 | 5.2 | 0.00 | 0.00 | 0.00 | 42 | 1007.8 |
| 20260506002503 | 74 | 165 | 2.6 | 8.7 | 0.00 | 0.00 | 0.00 | 42 | 1007.8 |
| 20260506002003 | 74 | 133 | 2.6 | 10.4 | 0.00 | 0.00 | 0.00 | 41 | 1007.7 |
| 20260506001504 | 74 | 207 | 2.6 | 6.1 | 0.00 | 0.00 | 0.00 | 41 | 1007.7 |
| 20260506001002 | 74 | 170 | 1.7 | 5.2 | 0.00 | 0.00 | 0.00 | 41 | 1007.6 |
| 20260506000503 | 74 | 191 | 0.9 | 6.1 | 0.00 | 0.00 | 0.00 | 41 | 1007.6 |
| 20260506000003 | 75 | 176 | 2.6 | 5.2 | 0.00 | 0.00 | 0.00 | 40 | 1007.5 |
| 20260505235502 | 75 | 181 | 2.6 | 8.7 | 0.00 | 0.00 | 0.00 | 40 | 1007.7 |
| 20260505234003 | 75 | 210 | 2.6 | 8.7 | 0.00 | 0.00 | 0.00 | 39 | 1007.5 |
| 20260505233503 | 75 | 199 | 2.6 | 6.1 | 0.00 | 0.00 | 0.00 | 39 | 1007.6 |
| 20260505232502 | 75 | 134 | 3.5 | 7.8 | 0.00 | 0.00 | 0.00 | 38 | 1007.5 |
| 20260505232003 | 76 | 221 | 2.6 | 7.8 | 0.00 | 0.00 | 0.00 | 38 | 1007.6 |
| 20260505231503 | 76 | 219 | 2.6 | 7.0 | 0.00 | 0.00 | 0.00 | 38 | 1007.5 |
| 20260505231003 | 76 | 185 | 2.6 | 5.2 | 0.00 | 0.00 | 0.00 | 38 | 1007.4 |
| 20260505230503 | 76 | 317 | 0.9 | 8.7 | 0.00 | 0.00 | 0.00 | 38 | 1007.3 |
| 20260505230002 | 76 | 235 | 2.6 | 7.8 | 0.00 | 0.00 | 0.00 | 37 | 1007.4 |
| 20260505225503 | 76 | 266 | 2.6 | 7.0 | 0.00 | 0.00 | 0.00 | 37 | 1007.4 |
| 20260505225003 | 76 | 239 | 3.5 | 10.4 | 0.00 | 0.00 | 0.00 | 37 | 1007.4 |
| 20260505224502 | 77 | 202 | 4.3 | 10.4 | 0.00 | 0.00 | 0.00 | 37 | 1007.2 |
| 20260505224003 | 77 | 244 | 4.3 | 8.7 | 0.00 | 0.00 | 0.00 | 36 | 1007.2 |
| 20260505223502 | 77 | 233 | 2.6 | 7.8 | 0.00 | 0.00 | 0.00 | 36 | 1007.3 |
| 20260505223003 | 77 | 223 | 2.6 | 5.2 | 0.00 | 0.00 | 0.00 | 36 | 1007.1 |
| 20260505222502 | 77 | 304 | 5.2 | 11.3 | 0.00 | 0.00 | 0.00 | 35 | 1007.0 |
| 20260505222003 | 78 | 259 | 4.3 | 8.7 | 0.00 | 0.00 | 0.00 | 35 | 1007.1 |
| 20260505221503 | 78 | 279 | 4.3 | 10.4 | 0.00 | 0.00 | 0.00 | 35 | 1007.0 |
| 20260505221002 | 79 | 260 | 1.7 | 5.2 | 0.00 | 0.00 | 0.00 | 35 | 1006.9 |
| 20260505220502 | 79 | 222 | 3.5 | 12.2 | 0.00 | 0.00 | 0.00 | 35 | 1007.0 |
| 20260505220002 | 79 | 205 | 2.6 | 10.4 | 0.00 | 0.00 | 0.00 | 34 | 1007.0 |
| 20260505215502 | 79 | 242 | 4.3 | 12.2 | 0.00 | 0.00 | 0.00 | 34 | 1006.9 |
| 20260505215003 | 79 | 196 | 4.3 | 11.3 | 0.00 | 0.00 | 0.00 | 34 | 1006.7 |
| 20260505214502 | 79 | 224 | 6.1 | 15.6 | 0.00 | 0.00 | 0.00 | 33 | 1006.7 |
| 20260505213503 | 80 | 244 | 6.1 | 14.8 | 0.00 | 0.00 | 0.00 | 34 | 1006.8 |
| 20260505212503 | 80 | 252 | 5.2 | 13.0 | 0.00 | 0.00 | 0.00 | 33 | 1006.7 |
| 20260505211502 | 80 | 198 | 5.2 | 12.2 | 0.00 | 0.00 | 0.00 | 33 | 1006.8 |
| 20260505211003 | 80 | 221 | 2.6 | 7.8 | 0.00 | 0.00 | 0.00 | 34 | 1006.7 |
| 20260505210502 | 79 | 150 | 1.7 | 6.1 | 0.00 | 0.00 | 0.00 | 33 | 1006.4 |
| 20260505210003 | 79 | 183 | 4.3 | 10.4 | 0.00 | 0.00 | 0.00 | 32 | 1006.5 |
| 20260505205506 | 80 | 192 | 2.6 | 8.7 | 0.00 | 0.00 | 0.00 | 32 | 1006.3 |
| 20260505204503 | 81 | 259 | 5.2 | 10.4 | 0.00 | 0.00 | 0.00 | 31 | 1006.4 |
| 20260505204003 | 81 | 267 | 5.2 | 13.9 | 0.00 | 0.00 | 0.00 | 32 | 1006.3 |
| 20260505203505 | 81 | 239 | 3.5 | 10.4 | 0.00 | 0.00 | 0.00 | 33 | 1006.3 |
| 20260505203003 | 81 | 186 | 2.6 | 10.4 | 0.00 | 0.00 | 0.00 | 33 | 1006.5 |
| 20260505202503 | 80 | 248 | 2.6 | 14.8 | 0.00 | 0.00 | 0.00 | 32 | 1006.5 |
| 20260505202002 | 81 | 256 | 7.8 | 14.8 | 0.00 | 0.00 | 0.00 | 32 | 1006.7 |
| 20260505201502 | 81 | 199 | 2.6 | 10.4 | 0.00 | 0.00 | 0.00 | 33 | 1006.6 |
| 20260505200503 | 80 | 281 | 6.1 | 14.8 | 0.00 | 0.00 | 0.00 | 32 | 1006.6 |
| 20260505200003 | 81 | 202 | 6.1 | 12.2 | 0.00 | 0.00 | 0.00 | 30 | 1006.7 |
| 20260505195503 | 81 | 275 | 5.2 | 13.0 | 0.00 | 0.00 | 0.00 | 32 | 1006.7 |
| 20260505195003 | 81 | 288 | 6.1 | 13.0 | 0.00 | 0.00 | 0.00 | 31 | 1006.7 |
| 20260505194003 | 81 | 207 | 6.1 | 13.9 | 0.00 | 0.00 | 0.00 | 33 | 1006.8 |
| 20260505193003 | 82 | 216 | 4.3 | 10.4 | 0.00 | 0.00 | 0.00 | 34 | 1006.7 |
| 20260505192003 | 82 | 281 | 3.5 | 10.4 | 0.00 | 0.00 | 0.00 | 34 | 1006.9 |
| 20260505191503 | 81 | 271 | 4.3 | 13.9 | 0.00 | 0.00 | 0.00 | 34 | 1007.0 |
| 20260505191002 | 81 | 293 | 6.1 | 11.3 | 0.00 | 0.00 | 0.00 | 33 | 1007.0 |
| 20260505190502 | 81 | 220 | 4.3 | 15.6 | 0.00 | 0.00 | 0.00 | 34 | 1007.0 |
| 20260505190003 | 82 | 312 | 4.3 | 10.4 | 0.00 | 0.00 | 0.00 | 33 | 1007.3 |
| 20260505185503 | 82 | 239 | 4.3 | 10.4 | 0.00 | 0.00 | 0.00 | 35 | 1007.2 |
| 20260505185003 | 81 | 230 | 3.5 | 10.4 | 0.00 | 0.00 | 0.00 | 36 | 1007.2 |
| 20260505184503 | 81 | 246 | 5.2 | 12.2 | 0.00 | 0.00 | 0.00 | 35 | 1007.3 |
| 20260505183503 | 80 | 223 | 1.7 | 7.8 | 0.00 | 0.00 | 0.00 | 39 | 1007.4 |
| 20260505183002 | 80 | 248 | 7.0 | 13.0 | 0.00 | 0.00 | 0.00 | 39 | 1007.5 |
| 20260505182503 | 80 | 306 | 6.1 | 10.4 | 0.00 | 0.00 | 0.00 | 37 | 1007.7 |
| 20260505182002 | 80 | 199 | 3.5 | 11.3 | 0.00 | 0.00 | 0.00 | 38 | 1007.7 |
| 20260505181502 | 80 | 300 | 7.8 | 13.9 | 0.00 | 0.00 | 0.00 | 38 | 1007.8 |
| 20260505181003 | 80 | 215 | 5.2 | 11.3 | 0.00 | 0.00 | 0.00 | 38 | 1007.8 |
| 20260505180503 | 80 | 277 | 6.1 | 15.6 | 0.00 | 0.00 | 0.00 | 35 | 1008.1 |
| 20260505180002 | 80 | 297 | 4.3 | 22.6 | 0.00 | 0.00 | 0.00 | 37 | 1007.8 |
| 20260505175003 | 80 | 283 | 4.3 | 14.8 | 0.00 | 0.00 | 0.00 | 38 | 1007.8 |
| 20260505174003 | 80 | 195 | 3.5 | 7.8 | 0.00 | 0.00 | 0.00 | 39 | 1007.9 |
| 20260505173503 | 80 | 288 | 4.3 | 12.2 | 0.00 | 0.00 | 0.00 | 39 | 1007.8 |
| 20260505173003 | 80 | 329 | 6.1 | 12.2 | 0.00 | 0.00 | 0.00 | 39 | 1007.9 |
| 20260505172503 | 80 | 250 | 4.3 | 10.4 | 0.00 | 0.00 | 0.00 | 40 | 1008.0 |
| 20260505172003 | 80 | 213 | 2.6 | 7.0 | 0.00 | 0.00 | 0.00 | 41 | 1008.0 |
| 20260505171503 | 79 | 223 | 2.6 | 12.2 | 0.00 | 0.00 | 0.00 | 43 | 1008.0 |
| 20260505165503 | 77 | 220 | 4.3 | 7.8 | 0.00 | 0.00 | 0.00 | 46 | 1008.6 |
| 20260505165003 | 77 | 289 | 2.6 | 7.0 | 0.00 | 0.00 | 0.00 | 45 | 1008.6 |
| 20260505164506 | 76 | 205 | 2.6 | 8.7 | 0.00 | 0.00 | 0.00 | 46 | 1008.6 |
| 20260505164003 | 77 | 310 | 4.3 | 8.7 | 0.00 | 0.00 | 0.00 | 46 | 1008.6 |
| 20260505163003 | 76 | 284 | 3.5 | 10.4 | 0.00 | 0.00 | 0.00 | 47 | 1008.8 |
| 20260505162503 | 76 | 293 | 3.5 | 7.8 | 0.00 | 0.00 | 0.00 | 46 | 1008.8 |
| 20260505162002 | 76 | 331 | 4.3 | 10.4 | 0.00 | 0.00 | 0.00 | 49 | 1008.9 |
| 20260505161503 | 75 | 301 | 3.5 | 7.0 | 0.00 | 0.00 | 0.00 | 47 | 1008.9 |
| 20260505161002 | 75 | 312 | 5.2 | 13.0 | 0.00 | 0.00 | 0.00 | 48 | 1008.9 |
| 20260505160503 | 75 | 325 | 4.3 | 10.4 | 0.00 | 0.00 | 0.00 | 48 | 1009.0 |
| 20260505153003 | 73 | 301 | 4.3 | 8.7 | 0.00 | 0.00 | 0.00 | 50 | 1009.4 |
| 20260505152503 | 73 | 263 | 4.3 | 10.4 | 0.00 | 0.00 | 0.00 | 51 | 1009.6 |
| 20260505152002 | 73 | 311 | 2.6 | 6.1 | 0.00 | 0.00 | 0.00 | 53 | 1009.6 |
| 20260505151503 | 72 | 255 | 1.7 | 6.1 | 0.00 | 0.00 | 0.00 | 52 | 1009.5 |
| 20260505150503 | 71 | 316 | 2.6 | 6.1 | 0.00 | 0.00 | 0.00 | 53 | 1009.6 |
| 20260505140502 | 69 | 287 | 5.2 | 10.4 | 0.00 | 0.00 | 0.00 | 55 | 1010.0 |
| 20260505124503 | 64 | 291 | 1.7 | 4.3 | 0.00 | 0.00 | 0.00 | 67 | 1010.0 |
| 20260505124003 | 64 | 236 | 1.7 | 6.1 | 0.00 | 0.00 | 0.00 | 67 | 1009.8 |
| 20260505123503 | 63 | 326 | 0.9 | 4.3 | 0.00 | 0.00 | 0.00 | 68 | 1009.7 |
| 20260505123003 | 63 | 221 | 1.7 | 2.6 | 0.00 | 0.00 | 0.00 | 69 | 1009.5 |
| 20260505122502 | 63 | 255 | 2.6 | 7.8 | 0.00 | 0.00 | 0.00 | 70 | 1009.6 |
| 20260505121502 | 62 | 167 | 1.7 | 6.1 | 0.00 | 0.00 | 0.00 | 72 | 1009.7 |
| 20260505120503 | 62 | 151 | 2.6 | 6.1 | 0.00 | 0.00 | 0.00 | 74 | 1009.4 |
| 20260505120003 | 61 | 155 | 2.6 | 7.0 | 0.00 | 0.00 | 0.00 | 76 | 1009.6 |
| 20260505115503 | 61 | 161 | 1.7 | 7.0 | 0.00 | 0.00 | 0.00 | 76 | 1009.7 |
| 20260505114502 | 60 | 169 | 1.7 | 2.6 | 0.00 | 0.00 | 0.00 | 76 | 1009.7 |
| 20260505114003 | 60 | 271 | 0.0 | 1.7 | 0.00 | 0.00 | 0.00 | 77 | 1009.7 |
| 20260505113503 | 59 | 138 | 0.9 | 2.6 | 0.00 | 0.00 | 0.00 | 76 | 1009.7 |
| 20260505113003 | 59 | 144 | 1.7 | 2.6 | 0.00 | 0.00 | 0.00 | 78 | 1009.6 |
| 20260505112502 | 58 | 167 | 1.7 | 4.3 | 0.00 | 0.00 | 0.00 | 79 | 1009.5 |
| 20260505112003 | 57 | 166 | 0.9 | 4.3 | 0.00 | 0.00 | 0.00 | 80 | 1009.5 |
| 20260505111503 | 57 | 157 | 0.9 | 5.2 | 0.00 | 0.00 | 0.00 | 80 | 1009.4 |
| 20260505111002 | 57 | 152 | 2.6 | 6.1 | 0.00 | 0.00 | 0.00 | 80 | 1009.3 |
| 20260505110502 | 57 | 144 | 2.6 | 4.3 | 0.00 | 0.00 | 0.00 | 80 | 1009.3 |
| 20260505101503 | 58 | 227 | 1.7 | 5.2 | 0.00 | 0.00 | 0.00 | 70 | 1009.8 |
| 20260505101003 | 59 | 236 | 2.6 | 8.7 | 0.00 | 0.00 | 0.00 | 68 | 1009.9 |
| 20260505100503 | 58 | 278 | 2.6 | 7.8 | 0.00 | 0.00 | 0.00 | 67 | 1009.8 |
| 20260505100004 | 58 | 175 | 3.5 | 5.2 | 0.00 | 0.00 | 0.00 | 68 | 1009.8 |
| 20260505095503 | 58 | 192 | 1.7 | 4.3 | 0.00 | 0.00 | 0.00 | 68 | 1009.6 |
| 20260505095003 | 57 | 228 | 0.9 | 4.3 | 0.00 | 0.00 | 0.00 | 68 | 1009.5 |
| 20260505094502 | 57 | 241 | 0.9 | 2.6 | 0.00 | 0.00 | 0.00 | 68 | 1009.6 |
| 20260505094003 | 57 | 246 | 0.0 | 1.7 | 0.00 | 0.00 | 0.00 | 68 | 1009.5 |
| 20260505093003 | 57 | 226 | 0.9 | 2.6 | 0.00 | 0.00 | 0.00 | 68 | 1009.4 |
| 20260505092503 | 57 | 242 | 0.9 | 1.7 | 0.00 | 0.00 | 0.00 | 68 | 1009.3 |
| 20260505091503 | 57 | 174 | 1.7 | 4.3 | 0.00 | 0.00 | 0.00 | 68 | 1009.3 |
| 20260505091003 | 57 | 208 | 0.9 | 2.6 | 0.00 | 0.00 | 0.00 | 68 | 1009.1 |
| 20260505090003 | 57 | 216 | 1.7 | 2.6 | 0.00 | 0.00 | 0.00 | 67 | 1008.9 |
| 20260505085503 | 57 | 175 | 2.6 | 4.3 | 0.00 | 0.00 | 0.00 | 67 | 1008.8 |
| 20260505085003 | 57 | 220 | 1.7 | 2.6 | 0.00 | 0.00 | 0.00 | 67 | 1009.0 |
| 20260505084002 | 56 | 168 | 1.7 | 4.3 | 0.00 | 0.00 | 0.00 | 67 | 1008.9 |
| 20260505083504 | 57 | 148 | 0.9 | 2.6 | 0.00 | 0.00 | 0.00 | 66 | 1008.8 |
| 20260505083003 | 57 | 159 | 0.9 | 2.6 | 0.00 | 0.00 | 0.00 | 66 | 1008.9 |
| 20260505082503 | 57 | 188 | 0.9 | 2.6 | 0.00 | 0.00 | 0.00 | 65 | 1008.9 |
| 20260505082003 | 57 | 157 | 0.9 | 2.6 | 0.00 | 0.00 | 0.00 | 65 | 1008.9 |
| 20260505081504 | 57 | 198 | 0.9 | 2.6 | 0.00 | 0.00 | 0.00 | 65 | 1008.8 |
| 20260505081003 | 58 | 183 | 0.9 | 2.6 | 0.00 | 0.00 | 0.00 | 64 | 1008.8 |
| 20260505080503 | 58 | 204 | 0.9 | 1.7 | 0.00 | 0.00 | 0.00 | 64 | 1008.8 |
| 20260505075503 | 58 | 196 | 1.7 | 2.6 | 0.00 | 0.00 | 0.00 | 64 | 1008.9 |
| 20260505075005 | 58 | 199 | 1.7 | 4.3 | 0.00 | 0.00 | 0.00 | 63 | 1009.0 |
| 20260505074003 | 58 | 169 | 0.9 | 7.0 | 0.00 | 0.00 | 0.00 | 63 | 1009.0 |
| 20260505073504 | 58 | 171 | 1.7 | 2.6 | 0.00 | 0.00 | 0.00 | 63 | 1009.0 |
| 20260505073003 | 58 | 240 | 0.9 | 2.6 | 0.00 | 0.00 | 0.00 | 63 | 1008.9 |
| 20260505072502 | 58 | 174 | 3.5 | 7.0 | 0.00 | 0.00 | 0.00 | 62 | 1008.9 |
| 20260505072003 | 58 | 339 | 2.6 | 6.1 | 0.00 | 0.00 | 0.00 | 62 | 1008.9 |
| 20260505071502 | 58 | 172 | 1.7 | 6.1 | 0.00 | 0.00 | 0.00 | 62 | 1008.8 |
| 20260505071003 | 58 | 190 | 1.7 | 6.1 | 0.00 | 0.00 | 0.00 | 62 | 1008.9 |
| 20260505070504 | 58 | 184 | 1.7 | 6.1 | 0.00 | 0.00 | 0.00 | 62 | 1008.9 |
| 20260505070003 | 58 | 194 | 3.5 | 7.0 | 0.00 | 0.00 | 0.00 | 62 | 1008.8 |
| 20260505065502 | 58 | 177 | 2.6 | 5.2 | 0.00 | 0.00 | 0.00 | 62 | 1008.9 |
| 20260505065003 | 58 | 257 | 1.7 | 7.8 | 0.00 | 0.00 | 0.00 | 62 | 1008.9 |
| 20260505064503 | 58 | 120 | 1.7 | 5.2 | 0.00 | 0.00 | 0.00 | 61 | 1009.0 |
| 20260505064003 | 58 | 199 | 1.7 | 4.3 | 0.00 | 0.00 | 0.00 | 61 | 1009.0 |
| 20260505063503 | 58 | 196 | 1.7 | 4.3 | 0.00 | 0.00 | 0.00 | 61 | 1009.1 |
| 20260505063003 | 58 | 205 | 0.9 | 6.1 | 0.00 | 0.00 | 0.00 | 60 | 1009.0 |
| 20260505062003 | 58 | 181 | 0.9 | 5.2 | 0.00 | 0.00 | 0.00 | 59 | 1009.0 |
| 20260505061503 | 59 | 194 | 1.7 | 5.2 | 0.00 | 0.00 | 0.00 | 59 | 1009.2 |
| 20260505061003 | 59 | 168 | 1.7 | 4.3 | 0.00 | 0.00 | 0.00 | 59 | 1009.1 |
| 20260505060503 | 59 | 163 | 1.7 | 4.3 | 0.00 | 0.00 | 0.00 | 59 | 1009.0 |
| 20260505055502 | 59 | 185 | 2.6 | 7.0 | 0.00 | 0.00 | 0.00 | 58 | 1009.1 |
| 20260505055003 | 59 | 268 | 1.7 | 5.2 | 0.00 | 0.00 | 0.00 | 58 | 1009.1 |
| 20260505054503 | 59 | 206 | 1.7 | 5.2 | 0.00 | 0.00 | 0.00 | 57 | 1009.1 |
| 20260505053003 | 59 | 198 | 1.7 | 6.1 | 0.00 | 0.00 | 0.00 | 57 | 1009.1 |
| 20260505052503 | 59 | 213 | 1.7 | 2.6 | 0.00 | 0.00 | 0.00 | 57 | 1009.1 |
| 20260505052002 | 59 | 150 | 2.6 | 7.8 | 0.00 | 0.00 | 0.00 | 57 | 1009.2 |
| 20260505051503 | 59 | 159 | 3.5 | 7.8 | 0.00 | 0.00 | 0.00 | 57 | 1009.2 |
| 20260505051003 | 59 | 171 | 3.5 | 7.0 | 0.00 | 0.00 | 0.00 | 57 | 1009.1 |
| 20260505050503 | 59 | 141 | 4.3 | 10.4 | 0.00 | 0.00 | 0.00 | 56 | 1009.2 |
| 20260505041503 | 61 | 168 | 5.2 | 7.8 | 0.00 | 0.00 | 0.00 | 53 | 1009.3 |
| 20260505041002 | 61 | 161 | 5.2 | 12.2 | 0.00 | 0.00 | 0.00 | 52 | 1009.2 |
| 20260505040504 | 61 | 142 | 5.2 | 10.4 | 0.00 | 0.00 | 0.00 | 53 | 1009.1 |
| 20260505034503 | 60 | 153 | 5.2 | 8.7 | 0.00 | 0.00 | 0.00 | 52 | 1009.3 |
| 20260505034003 | 61 | 158 | 4.3 | 7.8 | 0.00 | 0.00 | 0.00 | 52 | 1009.2 |